[TLELIST] Archives

 

[list_settings.list_name] Current TLEs

July 2nd 2021 PDT

HST 1 20580U 90037B 21182.86953444 .00000633 00000-0 27321-4 0 9992 2 20580 28.4707 329.6921 0002542 215.6852 277.1714 15.09672078513192 ISS (ZARYA) 1 25544U 98067A 21183.33178624 .00001416 00000-0 34109-4 0 9992 2 25544 51.6447 267.8294 0002199 131.3581 336.4119 15.48756480290949 CXO 1 25867U 99040B 21183.97601741 .00000240 00000-0 00000+0 0 9995 2 25867 54.7291 254.6440 8349010 226.5018 0.1188 0.37802787 21634 ____________________________________________________________________ These 2-Line ...Continue Reading

[list_settings.list_name] Current TLEs

July 1st 2021 PDT

HST 1 20580U 90037B 21181.72492772 .00000637 00000-0 27553-4 0 9999 2 20580 28.4708 337.2657 0002579 202.8973 176.8981 15.09671084513025 ISS (ZARYA) 1 25544U 98067A 21182.35859353 .00001433 00000-0 34425-4 0 9998 2 25544 51.6452 272.6420 0002244 127.3112 310.8257 15.48752842290796 CXO 1 25867U 99040B 21183.97601741 .00000240 00000-0 00000+0 0 9995 2 25867 54.7291 254.6440 8349010 226.5018 0.1188 0.37802787 21634 ____________________________________________________________________ These 2-Line ...Continue Reading

[list_settings.list_name] Current TLEs

June 30th 2021 PDT

HST 1 20580U 90037B 21181.15624631 .00000576 00000-0 23894-4 0 9993 2 20580 28.4708 341.0286 0002590 196.6159 326.3738 15.09670249513186 ISS (ZARYA) 1 25544U 98067A 21181.39710693 .00001489 00000-0 35457-4 0 9991 2 25544 51.6457 277.3967 0002268 123.6935 350.1340 15.48749374290647 CXO 1 25867U 99040B 21181.33164093 .00000286 00000-0 00000-0 0 9998 2 25867 54.7618 254.7163 8342877 226.5101 0.1160 0.37804249 10494 ____________________________________________________________________ These 2-Line ...Continue Reading

[list_settings.list_name] Current TLEs

June 29th 2021 PDT

HST 1 20580U 90037B 21179.89814177 .00000582 00000-0 24252-4 0 9993 2 20580 28.4708 349.3532 0002637 182.6853 329.1891 15.09669319512770 ISS (ZARYA) 1 25544U 98067A 21180.35647053 .00001725 00000-0 39780-4 0 9991 2 25544 51.6451 282.5413 0002258 121.3271 306.6160 15.48746009290482 CXO 1 25867U 99040B 21181.33164093 .00000286 00000-0 00000-0 0 9998 2 25867 54.7618 254.7163 8342877 226.5101 0.1160 0.37804249 10494 ____________________________________________________________________ These 2-Line ...Continue Reading

[list_settings.list_name] Current TLEs

June 28th 2021 PDT

HST 1 20580U 90037B 21178.81620538 .00000563 00000-0 23060-4 0 9995 2 20580 28.4709 356.5120 0002683 171.2264 208.8746 15.09668379512615 ISS (ZARYA) 1 25544U 98067A 21179.19616177 .00002786 00000-0 59204-4 0 9995 2 25544 51.6447 288.2818 0002111 115.3417 319.0572 15.48742061290302 CXO 1 25867U 99040B 21181.33164093 .00000286 00000-0 00000-0 0 9998 2 25867 54.7618 254.7163 8342877 226.5101 0.1160 0.37804249 10494 ____________________________________________________________________ These 2-Line ...Continue Reading

[list_settings.list_name] Current TLEs

June 27th 2021 PDT

HST 1 20580U 90037B 21177.82456610 .00000538 00000-0 21567-4 0 9995 2 20580 28.4710 3.0731 0002721 160.8446 219.2063 15.09667497512469 ISS (ZARYA) 1 25544U 98067A 21178.08461806 .00001947 00000-0 43855-4 0 9992 2 25544 51.6460 293.7779 0002361 112.8528 240.0903 15.48736575290120 CXO 1 25867U 99040B 21178.68761465 .00000344 00000-0 00000-0 0 9993 2 25867 54.8007 254.7991 8338625 226.5189 0.1185 0.37807751 10485 ____________________________________________________________________ These 2-Line ...Continue Reading

[list_settings.list_name] Current TLEs

June 26th 2021 PDT

HST 1 20580U 90037B 21176.78367243 .00000530 00000-0 21105-4 0 9992 2 20580 28.4710 9.9603 0002755 150.0462 321.7396 15.09666748512307 ISS (ZARYA) 1 25544U 98067A 21177.19543338 .00003617 00000-0 74436-4 0 9999 2 25544 51.6453 298.1729 0002234 104.1647 327.9113 15.48735396289992 CXO 1 25867U 99040B 21178.68761465 .00000344 00000-0 00000-0 0 9993 2 25867 54.8007 254.7991 8338625 226.5189 0.1185 0.37807751 10485 ____________________________________________________________________ These 2-Line ...Continue Reading

[list_settings.list_name] Current TLEs

June 25th 2021 PDT

HST 1 20580U 90037B 21175.86118407 .00000518 00000-0 20351-4 0 9994 2 20580 28.4710 16.0640 0002781 140.5547 347.7534 15.09666063512160 ISS (ZARYA) 1 25544U 98067A 21176.36001853 -.00000531 00000-0 -15293-5 0 9999 2 25544 51.6455 302.3054 0002044 94.8199 356.3824 15.48726669289863 CXO 1 25867U 99040B 21178.68590573 .00000344 00000-0 00000-0 0 9993 2 25867 54.8007 254.7990 8338634 226.5192 359.8854 0.37807835 10477 ____________________________________________________________________ These 2-Line ...Continue Reading

[list_settings.list_name] Current TLEs

June 24th 2021 PDT

HST 1 20580U 90037B 21175.00637101 .00000522 00000-0 20592-4 0 9999 2 20580 28.4710 21.7201 0002803 131.7203 21.6429 15.09665547512259 ISS (ZARYA) 1 25544U 98067A 21175.38768994 -.00307056 00000-0 -58547-2 0 9994 2 25544 51.6468 307.1264 0003047 120.9304 305.5704 15.48664113289718 CXO 1 25867U 99040B 21176.04398256 .00000353 00000-0 00000-0 0 9995 2 25867 54.8808 254.9167 8333657 226.5150 0.1711 0.37803241 10473 ____________________________________________________________________ These 2-Line ...Continue Reading

[list_settings.list_name] Current TLEs

June 23rd 2021 PDT

HST 1 20580U 90037B 21173.94713341 .00000510 00000-0 19852-4 0 9995 2 20580 28.4710 28.7285 0002825 120.9902 24.2223 15.09664797511872 ISS (ZARYA) 1 25544U 98067A 21173.65515341 -.00000451 00000-0 00000+0 0 9994 2 25544 51.6428 315.6803 0003919 122.6547 356.3586 15.49000460289445 CXO 1 25867U 99040B 21176.04398256 .00000353 00000-0 00000-0 0 9995 2 25867 54.8808 254.9167 8333657 226.5150 0.1711 0.37803241 10473 ____________________________________________________________________ These 2-Line ...Continue Reading
  • This mailing list is a public mailing list - anyone may join or leave, at any time.
  • This mailing list is announce-only.

International Space Station (ISS) / Hubble Space Telescope (HST) / Chandra X-Ray Observatory Orbital Data via EMAIL

Privacy Policy:

Private list